Location: Newark
(40.9833°N, 0.0333°W)
Time: 01:17:25
(UTC+00:00)

Altair - Pass Details

Date: 04 November 2020
Orbit: 1502 x 1682 km, 47.2° (Epoch: 02 December)

Event Time Altitude Azimuth Distance (km) Brightness Sun altitude
Rises 09:10:13 0° 297° (WNW) 4,720 9.5 23.2°
Reaches altitude 10° 09:13:15 10° 296° (WNW) 3,757 9.1 23.6°
Maximum altitude 09:22:44 70° 215° (SW) 1,689 8.3 24.7°
Drops below altitude 10° 09:32:34 10° 134° (SE) 3,886 11.4 25.8°
Sets 09:35:46 0° 132° (SE) 4,889 11.4 26.1°
